Overview Statistics Trail Chart Weather Telemetry Raw packets
 

This is the latest recevied weather packets stored in our database for station/object KB0BDN-13. If no packets are shown the sender has not sent any weather packets the latest 10 day(s).

<< 51 52 53 54 55 56 57 >>
Time Temp. Humidity Pressure Rain* Wind** Luminosity Snow
1788035353 24.44° C 69% 1006 hPa 0 mm - - -
1788034595 24.44° C 66% 1006 hPa 0 mm - - -
1788034453 24.44° C 66% 1005.9 hPa 0 mm - - -
1788033695 24.44° C 65% 1005.9 hPa 0 mm - - -
1788033553 24.44° C 65% 1006.2 hPa 0 mm - - -
1788032795 25° C 63% 1006.2 hPa 0 mm - - -
1788032653 25° C 62% 1006.2 hPa 0 mm - - -
1788031895 25° C 62% 1006.2 hPa 0 mm - - -
1788031753 25° C 62% 1006.2 hPa 0 mm - - -
1788030995 25° C 64% 1006.2 hPa 0 mm - - -
1788030853 25° C 64% 1006.6 hPa 0 mm - - -
1788030095 24.44° C 64% 1006.6 hPa 0 mm - - -
1788029953 24.44° C 64% 1006.7 hPa 0 mm - - -
1788029206 23.89° C 66% 1006.7 hPa 0 mm - - -
1788029053 23.89° C 66% 1006.8 hPa 0 mm - - -
1788028294 23.89° C 64% 1006.8 hPa 0 mm - - -
1788028153 23.89° C 64% 1006.8 hPa 0 mm - - -
1788027394 23.89° C 63% 1006.8 hPa 0 mm - - -
1788027253 24.44° C 64% 1006.8 hPa 0 mm - - -
1788026494 23.89° C 67% 1006.8 hPa 0 mm - - -
1788025594 22.78° C 65% 1006.9 hPa 0 mm - - -
1788025453 22.78° C 66% 1007.1 hPa 0 mm - - -
1788024694 22.22° C 68% 1007.1 hPa 0 mm - - -
1788024553 22.22° C 66% 1007.4 hPa 0 mm - - -
1788023794 22.78° C 63% 1007.4 hPa 0 mm - - -

* Rain latest hour (hover to see other rain measurements)
** Current wind speed in m/s (hover to see current wind gust speed)